Tracking 20093 objects as of 14-Dec-2019
HD Live streaming from Space Station
objects crossing your sky now

FENGYUN 1C DEB

Track FENGYUN 1C DEB now!
10-day predictions


NORAD ID: 31292
Int'l Code: 1999-025BPA
Perigee: 785.1 km
Apogee: 863.9 km
Inclination: 99.1 °
Period: 101.2 minutes
Semi major axis: 7195 km
RCS: 0.0053 m2 (small)
Launch date: May 10, 1999
Source: People's Republic of China (PRC)
Launch site: Taiyaun Space Center, China (TSC)

Note: This is SATELLITE DEBRIS
aabbcc
Your satellite tracking list
Your tracking list is empty




NASA's NSSDC Master Catalog

Two Line Element Set (TLE):
1 31292U 99025BPA 19347.67693404 +.00001549 +00000-0 +70638-3 0  9991
2 31292 099.0846 061.4570 0054787 252.3336 107.1853 14.22372797652173
Source of the keplerian elements: AFSPC